Total_Precipitation_Accumulation
0.04 0.05 0.05 0.06 0.03 0.01 0.00 0.00 0.00 0.00 0.00 0.00 0.00 0.00 0.00 0.00 0.00 0.00 0.00 0.00 0.01 0.03 0.05 0.12 0.16 0.18 0.20 0.21 0.19 0.16 0.17 0.16 0.16 0.16 0.16 0.18 0.20 0.22 0.25 0.26 0.27 0.28 0.33 0.35 0.32 0.34 0.42 0.47 0.52
0.04 0.06 0.06 0.06 0.03 0.01 0.00 0.00 0.00 0.00 0.00 0.00 0.00 0.00 0.00 0.00 0.00 0.00 0.00 0.00 0.00 0.01 0.03 0.07 0.14 0.17 0.20 0.21 0.20 0.18 0.16 0.15 0.13 0.14 0.14 0.16 0.20 0.23 0.25 0.27 0.28 0.30 0.36 0.37 0.38 0.40 0.43 0.47 0.49
0.08 0.08 0.08 0.06 0.02 0.00 0.00 0.00 0.00 0.00 0.00 0.00 0.00 0.00 0.00 0.00 0.00 0.00 0.00 0.00 0.00 0.01 0.02 0.06 0.13 0.18 0.21 0.24 0.23 0.19 0.17 0.16 0.14 0.15 0.16 0.17 0.18 0.20 0.22 0.25 0.27 0.30 0.34 0.32 0.35 0.38 0.36 0.38 0.39
0.10 0.12 0.10 0.05 0.01 0.00 0.00 0.00 0.00 0.00 0.00 0.00 0.00 0.00 0.00 0.00 0.00 0.00 0.00 0.00 0.00 0.01 0.02 0.05 0.14 0.19 0.22 0.26 0.26 0.21 0.18 0.17 0.16 0.17 0.19 0.19 0.18 0.18 0.18 0.19 0.20 0.23 0.27 0.28 0.30 0.34 0.33 0.37 0.38
0.12 0.13 0.10 0.05 0.01 0.00 0.00 0.00 0.00 0.00 0.00 0.00 0.00 0.00 0.00 0.00 0.00 0.00 0.00 0.00 0.00 0.01 0.02 0.06 0.15 0.21 0.23 0.26 0.28 0.24 0.20 0.18 0.18 0.19 0.21 0.21 0.21 0.19 0.17 0.16 0.15 0.15 0.16 0.21 0.25 0.29 0.32 0.39 0.37
0.15 0.13 0.08 0.03 0.01 0.00 0.00 0.00 0.00 0.00 0.00 0.00 0.00 0.00 0.00 0.00 0.00 0.00 0.00 0.00 0.00 0.01 0.03 0.07 0.17 0.21 0.23 0.27 0.30 0.25 0.23 0.21 0.20 0.20 0.21 0.22 0.23 0.22 0.21 0.18 0.15 0.14 0.14 0.15 0.17 0.23 0.35 0.41 0.36
0.16 0.12 0.06 0.02 0.00 0.00 0.00 0.00 0.00 0.00 0.00 0.00 0.00 0.00 0.00 0.00 0.00 0.00 0.00 0.00 0.01 0.02 0.03 0.07 0.14 0.19 0.24 0.29 0.34 0.31 0.28 0.26 0.24 0.22 0.20 0.21 0.21 0.23 0.23 0.20 0.18 0.17 0.16 0.16 0.14 0.16 0.26 0.34 0.34
0.16 0.15 0.07 0.02 0.01 0.00 0.00 0.00 0.00 0.00 0.00 0.00 0.00 0.00 0.00 0.00 0.00 0.00 0.01 0.01 0.02 0.03 0.05 0.08 0.12 0.15 0.19 0.25 0.30 0.33 0.32 0.31 0.29 0.25 0.20 0.19 0.19 0.22 0.20 0.16 0.15 0.16 0.16 0.17 0.15 0.14 0.19 0.23 0.26
0.22 0.24 0.12 0.03 0.02 0.01 0.00 0.00 0.00 0.00 0.00 0.00 0.00 0.00 0.00 0.00 0.01 0.01 0.02 0.04 0.05 0.05 0.06 0.08 0.13 0.16 0.19 0.21 0.23 0.28 0.32 0.32 0.29 0.24 0.19 0.19 0.18 0.17 0.16 0.12 0.11 0.13 0.14 0.15 0.17 0.16 0.14 0.14 0.12
0.32 0.26 0.11 0.04 0.03 0.03 0.02 0.02 0.02 0.02 0.01 0.01 0.00 0.00 0.00 0.01 0.01 0.02 0.03 0.05 0.05 0.06 0.07 0.09 0.13 0.16 0.19 0.19 0.21 0.24 0.26 0.26 0.24 0.20 0.17 0.18 0.17 0.15 0.14 0.13 0.12 0.14 0.14 0.14 0.16 0.16 0.11 0.10 0.08
0.30 0.23 0.10 0.05 0.05 0.07 0.05 0.03 0.03 0.03 0.03 0.01 0.01 0.01 0.01 0.02 0.03 0.03 0.04 0.05 0.05 0.05 0.07 0.08 0.12 0.16 0.18 0.20 0.19 0.21 0.22 0.23 0.22 0.19 0.16 0.18 0.20 0.20 0.16 0.13 0.12 0.11 0.11 0.12 0.14 0.15 0.13 0.15 0.20
0.28 0.19 0.13 0.08 0.06 0.09 0.10 0.06 0.05 0.04 0.03 0.01 0.01 0.01 0.02 0.03 0.03 0.04 0.04 0.06 0.08 0.08 0.08 0.08 0.11 0.15 0.18 0.18 0.18 0.19 0.20 0.19 0.19 0.18 0.17 0.16 0.17 0.17 0.15 0.13 0.10 0.09 0.09 0.09 0.11 0.12 0.13 0.13 0.17
0.26 0.17 0.13 0.12 0.10 0.10 0.11 0.10 0.08 0.05 0.02 0.02 0.03 0.03 0.04 0.04 0.05 0.05 0.05 0.07 0.09 0.10 0.10 0.10 0.11 0.14 0.17 0.19 0.19 0.17 0.19 0.18 0.16 0.16 0.16 0.14 0.12 0.11 0.12 0.12 0.10 0.08 0.08 0.08 0.08 0.09 0.09 0.10 0.14
0.25 0.18 0.14 0.15 0.15 0.14 0.14 0.11 0.09 0.05 0.03 0.04 0.05 0.05 0.06 0.06 0.06 0.07 0.07 0.08 0.09 0.10 0.11 0.11 0.12 0.14 0.17 0.19 0.19 0.16 0.17 0.19 0.19 0.16 0.14 0.11 0.10 0.08 0.08 0.08 0.08 0.06 0.05 0.05 0.05 0.05 0.06 0.07 0.09
0.26 0.25 0.21 0.17 0.18 0.20 0.20 0.17 0.08 0.03 0.04 0.06 0.07 0.07 0.06 0.06 0.07 0.07 0.07 0.08 0.08 0.11 0.12 0.13 0.14 0.15 0.17 0.19 0.20 0.19 0.17 0.17 0.18 0.17 0.14 0.11 0.10 0.08 0.07 0.06 0.06 0.05 0.05 0.05 0.04 0.04 0.04 0.05 0.06
0.37 0.41 0.34 0.19 0.16 0.21 0.31 0.25 0.06 0.03 0.06 0.08 0.08 0.07 0.06 0.06 0.06 0.06 0.07 0.09 0.09 0.11 0.14 0.14 0.15 0.16 0.18 0.19 0.21 0.22 0.21 0.21 0.18 0.17 0.17 0.14 0.11 0.10 0.10 0.10 0.08 0.05 0.05 0.07 0.08 0.07 0.07 0.07 0.08
0.53 0.47 0.27 0.15 0.13 0.21 0.31 0.24 0.08 0.06 0.08 0.08 0.07 0.07 0.07 0.07 0.06 0.06 0.07 0.09 0.10 0.12 0.15 0.16 0.16 0.17 0.18 0.20 0.23 0.24 0.24 0.23 0.22 0.19 0.16 0.15 0.14 0.12 0.11 0.12 0.12 0.11 0.11 0.12 0.14 0.12 0.14 0.13 0.11
0.38 0.27 0.18 0.14 0.14 0.19 0.22 0.16 0.10 0.09 0.09 0.09 0.08 0.07 0.08 0.07 0.07 0.07 0.07 0.08 0.10 0.13 0.17 0.19 0.18 0.19 0.20 0.25 0.31 0.31 0.29 0.26 0.27 0.25 0.20 0.16 0.16 0.13 0.13 0.13 0.12 0.14 0.16 0.18 0.19 0.16 0.15 0.16 0.17
0.23 0.23 0.20 0.13 0.13 0.19 0.18 0.14 0.11 0.11 0.11 0.09 0.09 0.08 0.08 0.08 0.08 0.09 0.10 0.10 0.11 0.14 0.18 0.21 0.22 0.22 0.25 0.28 0.30 0.32 0.28 0.26 0.28 0.29 0.25 0.21 0.19 0.15 0.14 0.13 0.13 0.13 0.12 0.12 0.12 0.13 0.13 0.12 0.13
0.31 0.33 0.26 0.16 0.14 0.19 0.19 0.14 0.11 0.10 0.11 0.09 0.08 0.08 0.07 0.08 0.09 0.11 0.11 0.12 0.12 0.14 0.17 0.21 0.22 0.24 0.24 0.25 0.24 0.25 0.27 0.25 0.25 0.27 0.29 0.26 0.23 0.19 0.16 0.14 0.12 0.12 0.10 0.08 0.06 0.06 0.09 0.07 0.07
0.36 0.29 0.22 0.21 0.22 0.24 0.23 0.19 0.09 0.09 0.08 0.08 0.07 0.06 0.06 0.08 0.10 0.12 0.13 0.15 0.14 0.14 0.16 0.20 0.20 0.22 0.24 0.28 0.33 0.33 0.39 0.39 0.33 0.28 0.29 0.27 0.24 0.20 0.16 0.14 0.13 0.12 0.11 0.09 0.07 0.06 0.07 0.08 0.06
0.35 0.19 0.19 0.25 0.39 0.47 0.35 0.35 0.11 0.07 0.09 0.08 0.07 0.06 0.06 0.07 0.09 0.11 0.13 0.16 0.15 0.15 0.16 0.18 0.19 0.22 0.26 0.30 0.36 0.36 0.35 0.37 0.33 0.27 0.25 0.24 0.23 0.20 0.17 0.15 0.13 0.13 0.12 0.12 0.10 0.07 0.07 0.09 0.11
0.26 0.18 0.24 0.34 0.49 0.55 0.40 0.39 0.15 0.06 0.10 0.09 0.07 0.06 0.06 0.05 0.06 0.09 0.12 0.14 0.16 0.18 0.19 0.19 0.19 0.22 0.28 0.32 0.34 0.39 0.35 0.32 0.33 0.35 0.31 0.27 0.24 0.23 0.20 0.17 0.15 0.14 0.14 0.13 0.12 0.10 0.10 0.11 0.14
0.29 0.37 0.47 0.55 0.81 0.90 0.33 0.27 0.15 0.07 0.10 0.09 0.08 0.07 0.07 0.06 0.07 0.08 0.11 0.15 0.18 0.22 0.23 0.26 0.25 0.24 0.28 0.33 0.35 0.39 0.37 0.34 0.36 0.37 0.36 0.33 0.31 0.28 0.24 0.21 0.18 0.14 0.13 0.14 0.13 0.13 0.13 0.13 0.14
0.53 0.82 1.15 1.15 1.17 0.70 0.13 0.12 0.11 0.05 0.05 0.05 0.06 0.09 0.09 0.07 0.08 0.09 0.11 0.15 0.20 0.22 0.24 0.30 0.31 0.28 0.28 0.33 0.33 0.35 0.35 0.35 0.36 0.37 0.36 0.35 0.33 0.31 0.28 0.25 0.22 0.18 0.15 0.14 0.16 0.18 0.18 0.18 0.20
0.51 0.74 1.02 0.89 0.52 0.21 0.08 0.08 0.06 0.02 0.02 0.02 0.03 0.05 0.07 0.07 0.08 0.10 0.10 0.14 0.19 0.20 0.21 0.25 0.32 0.33 0.30 0.30 0.31 0.33 0.36 0.35 0.34 0.36 0.36 0.36 0.32 0.28 0.27 0.27 0.25 0.22 0.19 0.18 0.19 0.20 0.22 0.24 0.25
0.39 0.49 0.51 0.68 0.49 0.27 0.15 0.08 0.04 0.01 0.01 0.01 0.02 0.03 0.05 0.07 0.08 0.12 0.11 0.14 0.19 0.20 0.18 0.18 0.25 0.31 0.32 0.33 0.32 0.32 0.34 0.36 0.34 0.33 0.35 0.35 0.35 0.31 0.30 0.31 0.31 0.29 0.27 0.27 0.27 0.27 0.26 0.27 0.28
0.33 0.43 0.57 0.93 0.81 0.40 0.17 0.09 0.08 0.04 0.02 0.02 0.02 0.03 0.04 0.06 0.08 0.13 0.13 0.13 0.18 0.21 0.18 0.15 0.21 0.26 0.28 0.31 0.34 0.34 0.33 0.34 0.36 0.36 0.36 0.33 0.33 0.34 0.35 0.36 0.36 0.34 0.33 0.34 0.38 0.36 0.33 0.32 0.31
0.38 0.53 0.75 0.85 0.63 0.43 0.24 0.15 0.11 0.08 0.06 0.05 0.05 0.04 0.05 0.06 0.08 0.13 0.14 0.14 0.15 0.21 0.21 0.17 0.16 0.23 0.27 0.28 0.31 0.34 0.36 0.36 0.38 0.40 0.38 0.35 0.34 0.37 0.37 0.37 0.38 0.38 0.37 0.39 0.41 0.41 0.41 0.42 0.39
0.37 0.45 0.58 0.81 0.61 0.34 0.27 0.17 0.09 0.08 0.06 0.06 0.06 0.05 0.04 0.04 0.06 0.09 0.12 0.14 0.15 0.22 0.25 0.21 0.18 0.20 0.26 0.29 0.29 0.31 0.36 0.41 0.42 0.40 0.39 0.40 0.38 0.38 0.40 0.40 0.40 0.40 0.41 0.45 0.48 0.47 0.46 0.49 0.51